Location: Ca�n Batista
(41.4099°N, 1.7752°E)
Time: 15:06:57
(UTC+00:00)

Cosmos 1500 - Pass Details

Date: 03 March 2021
Orbit: 499 x 517 km, 82.5° (Epoch: 22 April)

Event Time Altitude Azimuth Distance (km) Brightness Sun altitude
Rises 18:44:53 0° 180° (S) 2,577 6.7 -11.8°
Reaches altitude 10° 18:46:59 10° 177° (S) 1,697 5.8 -12.2°
Maximum altitude 18:50:40 65° 95° (E) 553 3.0 -12.9°
Drops below altitude 10° 18:54:23 10° 14° (NNE) 1,711 5.7 -13.6°
Sets 18:56:31 0° 11° (NNE) 2,601 6.7 -14.0°
